C/2018 O1 ( ATLAS )

Japanese version
Home page
Updated on August 25, 2018

---------------------------------------------------------------------

* Profile

Discovery Date July 22, 2018
Magnitude 18.7 mag
Discoverer Asteroid Terrestrial-impact Last Alert System (ATLAS) search program

* Orbital Elements

Epoch 2018 Aug. 30.0 TT = JDT 2458360.5
T 2018 Aug. 31.57674 TT                                 MPCW
q   1.5581463            (2000.0)            P               Q
n   0.00672211     Peri.  162.50810     +0.23040880     -0.86927178
a  27.8055955      Node    87.62021     -0.93693325     -0.07679325
e   0.9439629      Incl.  154.04078     -0.26280767     -0.48833325
P 147
From 311 observations 2018 July 15-Aug. 16, mean residual 0".5.

* Magnitudes Graph

        m1 = 16.5 + 5 log d + 10.0 log r

---------------------------------------------------------------------

The orbital elements are published on M.P.E.C. 2018-Q22.
The magnitudes graphs are made with Comet for Windows.

---------------------------------------------------------------------

Copyright(C) Seiichi Yoshida (comet@aerith.net). All rights reserved.